This is the latest recevied weather packets stored in our database for station/object WB4MOZ-3. If no packets are shown the sender has not sent any weather packets the latest 10 day(s).
| Time | Temp. | Humidity | Pressure | Rain* | Wind** | Luminosity | Snow |
|---|---|---|---|---|---|---|---|
| 1778006868 | 31.11° C | 59% | 1013.2 hPa | 0 mm | - | - | - |
| 1778006568 | 31.11° C | 59% | 1013.2 hPa | 0 mm | - | - | - |
| 1778006268 | 30.56° C | 60% | 1013.2 hPa | 0 mm | - | - | - |
| 1778005968 | 31.11° C | 61% | 1013.1 hPa | 0 mm | - | - | - |
| 1778005668 | 30.56° C | 60% | 1013.1 hPa | 0 mm | - | - | - |
| 1778005368 | 30.56° C | 60% | 1013.1 hPa | 0 mm | - | - | - |
| 1778005068 | 30.56° C | 61% | 1013.2 hPa | 0 mm | - | - | - |
| 1778004770 | 31.11° C | 59% | 1013.3 hPa | 0 mm | - | - | - |
| 1778004468 | 31.11° C | 61% | 1013.2 hPa | 0 mm | - | - | - |
| 1778004168 | 31.11° C | 59% | 1013.4 hPa | 0 mm | - | - | - |
| 1778003868 | 31.11° C | 62% | 1013.5 hPa | 0 mm | - | - | - |
| 1778003568 | 30.56° C | 62% | 1013.5 hPa | 0 mm | - | - | - |
| 1778003269 | 30.56° C | 64% | 1013.5 hPa | 0 mm | - | - | - |
| 1778002968 | 30.56° C | 63% | 1013.6 hPa | 0 mm | - | - | - |
| 1778002668 | 30° C | 64% | 1013.6 hPa | 0 mm | - | - | - |
| 1778002368 | 30° C | 64% | 1013.5 hPa | 0 mm | - | - | - |
| 1778002068 | 30.56° C | 64% | 1013.5 hPa | 0 mm | - | - | - |
| 1778001768 | 30° C | 64% | 1013.5 hPa | 0 mm | - | - | - |
| 1778001468 | 30.56° C | 63% | 1013.6 hPa | 0 mm | - | - | - |
| 1778001168 | 30° C | 65% | 1013.6 hPa | 0 mm | - | - | - |
| 1778000868 | 30° C | 65% | 1013.7 hPa | 0 mm | - | - | - |
| 1778000569 | 30° C | 67% | 1013.7 hPa | 0 mm | - | - | - |
| 1777999967 | 30° C | 65% | 1013.8 hPa | 0 mm | - | - | - |
| 1777999667 | 31.11° C | 65% | 1013.7 hPa | 0 mm | - | - | - |
| 1777999367 | 30.56° C | 64% | 1013.8 hPa | 0 mm | - | - | - |
* Rain latest hour (hover to see other rain measurements)
** Current wind speed in m/s (hover to see current wind gust speed)